Regional Weather Roundup
Issued by NWS Albany, NY

Home | Current Version | Previous Version | Text Only | Print | Product List | Glossary On
Versions: 1 2 3 4 5 6 7 8 9 10 11 12 13 14 15 16 17 18 19 20 21 22 23 24 25 26 27 28 29 30 31 32 33 34 35 36 37 38 39 40 41 42 43 44 45 46 47 48 49 50
000
ASUS41 KALY 282310
RWRALY

NEW YORK STATE HOURLY WEATHER ROUNDUP
NATIONAL WEATHER SERVICE ALBANY NY
600 PM EST WED JAN 28 2015

NOTE: "FAIR" INDICATES FEW OR NO CLOUDS BELOW 12,000 FEET WITH NO
SIGNIFICANT WEATHER AND/OR NO OBSTRUCTIONS TO VISIBILITY.

NYZ032-033-038>043-046>054-057>066-NYZ062>081-290000-
EAST


CITY           SKY/WX    TMP DP  RH WIND       PRES   REMARKS
ALBANY         CLEAR     19  -1  41 N8        30.22R WCI   9
GLENS FALLS    CLEAR     14   0  53 CALM      30.23R
POUGHKEEPSIE   CLEAR     25   4  40 NW5       30.18R WCI  19
NEWBURGH       CLEAR     25   7  46 N9        30.16R WCI  15
MONTGOMERY     CLEAR     20   6  55 NW5       30.15R WCI  13
WHITE PLAINS   CLEAR     27   4  37 NW13      30.13R WCI  16
ISLIP          CLEAR     27   8  44 N16       30.12R WCI  15
NEW YORK CITY  CLEAR     32  11  41 N9        30.16R WCI  24
CENTRAL PARK   CLEAR     32   3  29 VRB3      30.18R
$$

NYZ005>009-017-018-044>046-055-056-290000-
CENTRAL


CITY           SKY/WX    TMP DP  RH WIND       PRES   REMARKS
FULTON         CLEAR     17   6  62 CALM      30.30R
SYRACUSE       CLEAR     17   3  54 CALM      30.30R
ROME           CLEAR     16   0  49 W8        30.30R WCI   5
ELMIRA         CLEAR     21   7  54 N7        30.26R WCI  12
BINGHAMTON     CLEAR     17   2  51 NW10      30.18R WCI   5
MONTICELLO     CLEAR     21   0  39 NW7       30.13R WCI  13
$$

NYZ026>034-041>043-290000-
NORTH


CITY           SKY/WX    TMP DP  RH WIND       PRES   REMARKS
WATERTOWN      CLEAR     14  -4  44 S5        30.30S WCI   6
FORT DRUM      NOT AVBL
MASSENA        CLEAR     13  -6  42 S6        30.30R WCI   4
SARANAC LAKE   CLEAR     12  -7  42 VRB5      30.15R WCI   4
PLATTSBURGH    CLEAR     12   1  61 CALM      30.24R
$$

NYZ001>004-010>016-019>021-290000-
WEST


CITY           SKY/WX    TMP DP  RH WIND       PRES   REMARKS
NIAGARA FALLS  PTCLDY    18  10  71 S6        30.31R WCI  10
BUFFALO        PTCLDY    19  12  74 SW8       30.31R WCI   9
DUNKIRK        CLEAR     17  11  77 SW6       30.32S WCI   9
JAMESTOWN      CLEAR     21   1  42 CALM      30.23S
WELLSVILLE     CLEAR     19  -2  39 NW7       30.20R WCI  10
ROCHESTER      PTCLDY    22   8  55 W7        30.30R WCI  13
PENN YAN       CLEAR     18   2  49 NE3       30.26S
$$

             KEY
       WCI = WIND CHILL INDEX
       VSB = VISIBILITY
       HX  = HEAT INDEX
$$


USA.gov is the U.S. government's official web portal to all federal, state and local government web resources and services.